Home > Weather > Swansea > Past weeks

Flag for United Kingdom Past Weather in Swansea, Wales, United Kingdom — Yesterday and Last 2 Weeks

Now
63 °F

Mild.


Feels Like: 63 °F
Forecast: 55 / 66 °F
Wind: 22 mph from West

Location: Mumbles

Current Time: Jul 28, 2016 at 11:31:55 PM

Latest Report: Jul 28, 2016 at 2:00 PM


Visibility: N/A

Pressure: 29.93 "Hg

Humidity: 96%

Dew Point: 62 °F

Location of SwanseaLocation

Past Weather in Swansea — Graph

°F

Swansea Temperature Yesterday

Maximum temperature yesterday: 67 °F (at 2:00 PM)
Minimum temperature yesterday: 59 °F (at 11:00 PM)
Average temperature yesterday: 63 °F

High & Low Weather Summary for the Past Weeks

 TemperatureHumidityPressure
High77 °F (Jul 18, 8:00 PM)100% (Jul 15, 11:00 PM)30.38 "Hg (Jul 15, 11:00 PM)
Low54 °F (Jul 14, 5:00 AM)49% (Jul 13, 2:00 PM)29.72 "Hg (Jul 20, 5:00 AM)
Average62 °F87%30.13 "Hg
* Reported Jul 13 2:00 PM — Jul 28 2:00 PM, Swansea, Weather by CustomWeather, © 2016

Note: Actual official high and low records may vary slightly from our data, if they occured in-between our weather recording intervals... More about our weather records

Advertising

Swansea Weather History for the Previous 24 Hours

Scroll right to see more
 ConditionsComfort  
Time TempWeatherWind HumidityBarometerVisibility
2:00 PM
Thu, Jul 28
63 °FMild.22 mph96%29.93 "HgN/A
1:00 PM63 °FMild.23 mph98%29.93 "HgN/A
12:00 PM63 °FMild.22 mph98%29.93 "HgN/A
11:00 AM61 °FCool.29 mph97%29.94 "HgN/A
10:00 AM60 °FCool.25 mph97%29.96 "HgN/A
9:00 AM60 °FCool.22 mph95%29.97 "HgN/A
8:00 AM60 °FCool.18 mph93%29.98 "HgN/A
7:00 AM61 °FCool.12 mph90%29.99 "HgN/A
6:00 AM58 °FCool.6 mph91%30.01 "HgN/A
5:00 AM57 °FCool.6 mph89%30.02 "HgN/A
4:00 AM57 °FCool.3 mph88%30.04 "HgN/A
3:00 AM57 °FCool.3 mph87%30.06 "HgN/A
2:00 AM58 °FCool.9 mph84%30.06 "HgN/A
1:00 AM58 °FCool.10 mph81%30.07 "HgN/A
12:00 AM58 °FCool.12 mph78%30.08 "HgN/A
11:00 PM
Wed, Jul 27
59 °FCool.8 mph73%30.08 "HgN/A
Weather by CustomWeather, © 2016

See weather overviewHow to use our weather pages